FW2439 Weather Reports


Display with metric or nautical units.
time (UTC)temp
F
wind
direction
speed
MPH
gust
MPH
rain 1hr
in
rain 24hr
in
rain mn
in
humidity
%
barometer
mb
20260505090001 58 228 0.0 2.0 0.00 0.00 0.00 83 1009.4
20260505084601 58 219 0.0 0.0 0.00 0.00 0.00 83 1009.4
20260505083117 58 219 0.0 2.0 0.00 0.00 0.00 83 1009.3
20260505081559 57 219 0.0 2.0 0.00 0.00 0.00 85 1009.2
20260505080057 57 219 0.0 0.0 0.00 0.00 0.00 85 1009.2
20260505074556 56 219 0.0 1.0 0.00 0.00 0.00 87 1009.4
20260505073056 55 219 0.0 1.0 0.00 0.00 0.00 88 1009.8
20260505071553 55 219 0.0 0.0 0.00 0.00 0.00 88 1010.3
20260505070052 55 219 0.0 1.0 0.00 0.00 0.00 88 1010.2
20260505064557 55 219 0.0 1.0 0.00 0.00 0.00 87 1011.0
20260505063051 55 219 0.0 0.0 0.00 0.00 0.00 86 1011.2
20260505061544 56 219 0.0 0.0 0.00 0.00 0.00 85 1011.1
20260505060041 56 219 0.0 0.0 0.00 0.00 0.00 84 1011.2
20260505054539 57 219 0.0 1.0 0.00 0.00 0.00 83 1011.1
20260505053036 57 219 0.0 0.0 0.00 0.00 0.00 83 1011.2
20260505051535 58 219 0.0 0.0 0.00 0.00 0.00 81 1011.2
20260505041534 60 219 0.0 1.0 0.00 0.00 0.00 75 1011.4
20260505040031 61 219 0.0 1.0 0.00 0.00 0.00 74 1011.1
20260505034534 62 219 0.0 1.0 0.00 0.00 0.00 72 1011.2
20260505033032 62 219 0.0 1.0 0.00 0.00 0.00 72 1011.1
20260505031528 62 219 0.0 1.0 0.00 0.00 0.00 71 1010.9
20260505030028 63 219 0.0 0.0 0.00 0.00 0.00 68 1010.7
20260505024539 64 219 0.0 1.0 0.00 0.00 0.00 66 1010.9
20260505023026 65 219 0.0 1.0 0.00 0.00 0.00 65 1010.7
20260505021525 66 219 0.0 1.0 0.00 0.00 0.00 63 1010.7
20260505020025 67 219 0.0 2.0 0.00 0.00 0.00 62 1010.4
20260505014530 68 219 0.0 3.0 0.00 0.00 0.00 60 1010.6
20260505013029 68 219 0.0 1.0 0.00 0.00 0.00 59 1010.5
20260505011524 70 219 0.0 2.0 0.00 0.00 0.00 57 1010.3
20260505010024 71 219 0.0 3.0 0.00 0.00 0.00 56 1010.4
20260505004524 72 203 1.0 4.0 0.00 0.00 0.00 53 1010.4
20260505003022 73 212 1.0 5.0 0.00 0.00 0.00 51 1010.5
20260505001522 74 222 2.0 8.0 0.00 0.00 0.00 50 1010.4
20260505000030 74 219 1.0 8.0 0.00 0.00 0.00 49 1010.3
20260504234522 75 179 2.0 8.0 0.00 0.00 0.00 48 1010.4
20260504233023 76 160 3.0 16.0 0.00 0.00 0.00 48 1010.3
20260504231527 77 158 2.0 10.0 0.00 0.00 0.00 48 1010.3
20260504230019 78 207 5.0 9.0 0.00 0.00 0.00 45 1010.4
20260504224522 79 192 1.0 10.0 0.00 0.00 0.00 45 1010.4
20260504223016 79 159 5.0 16.0 0.00 0.00 0.00 45 1010.4
20260504221515 79 170 6.0 14.0 0.00 0.00 0.00 44 1010.3
20260504220019 80 219 5.0 14.0 0.00 0.00 0.00 45 1010.4
20260504214514 80 259 6.0 17.0 0.00 0.00 0.00 44 1010.4
20260504213013 80 167 4.0 14.0 0.00 0.00 0.00 43 1010.3
20260504211513 80 184 5.0 13.0 0.00 0.00 0.00 46 1010.4
20260504210010 80 217 3.0 9.0 0.00 0.00 0.00 46 1010.5
20260504204509 80 227 7.0 15.0 0.00 0.00 0.00 45 1010.6
20260504203018 80 221 8.0 13.0 0.00 0.00 0.00 44 1011.0
20260504201506 80 212 2.0 12.0 0.00 0.00 0.00 47 1011.0
20260504200005 80 174 3.0 13.0 0.00 0.00 0.00 48 1011.3
20260504194503 80 228 8.0 19.0 0.00 0.00 0.00 46 1011.9
20260504193000 80 193 3.0 9.0 0.00 0.00 0.00 48 1012.0
20260504191559 80 212 5.0 14.0 0.00 0.00 0.00 47 1012.3
20260504190125 80 223 5.0 11.0 0.00 0.00 0.00 46 1012.4
20260504184558 79 176 5.0 8.0 0.00 0.00 0.00 48 1012.4
20260504183051 78 212 5.0 14.0 0.00 0.00 0.00 50 1012.4
20260504181556 78 203 7.0 16.0 0.00 0.00 0.00 48 1012.5
20260504180128 78 181 4.0 13.0 0.00 0.00 0.00 50 1012.6
20260504174549 78 173 4.0 12.0 0.00 0.00 0.00 49 1012.9
20260504173056 78 225 4.0 10.0 0.00 0.00 0.00 50 1013.2
20260504171540 78 176 4.0 10.0 0.00 0.00 0.00 51 1013.3